map of YMS home
YMS - Airport
Location
City:  Yurimaguas, Loreto, Perú
Name:Moisés Benzaquén Rengifo Airport
ICAO:SPMS
IATA:YMS

Details
Type:Airport (Aerodrome, Airfield)
Use:Public/Civil
Latitude:5°53'37"S (-5.893610)
Longitude:76°07'05"W (-76.118055)
Elevation:587 ft (179 m)
Variation:4.09°W (WMM2015 magnetic declination)
-0.17° annual change
Runways:1
Longest:5906 × 98 ft (1800 × 30 m), paved

Time
Time Zone:UTC-5
Local Time:

Weather
METAR:SPMS 242300Z 05004KT 9999 FEW015 32/25 Q//// RMK BIRD HAZARD RWY 09/27 PP000
TAF:SPMS 241100Z 2412/2512 32004KT 9999 SCT015 BKN080 TX30/2419Z TN23/2511Z
TEMPO 2412/2414 00000KT 3000 BR SCT010 BKN100
TEMPO 2418/2422 05009KT 5000 -SHRA BKN015 FEW025TCU BKN080

Related Locations
Nearby:
Farthest:RDN: 12388 mi / 19937 km
Redang [Redang Airport], Redang Island (Pulau Redang), 11, MY

Find:

   beyond  
but within

Other Information
Maps:
NOTAMs:
Links:
Sources:

  
flag of Perú
flag of Loreto
  

Sectional Chart

Flight Planning
at skyvector.com

Satellite Image

Google Maps Satellite view

 

Copyright © 2004-2018 Karl L. Swartz. All rights reserved.
The Great Circle Mapper name and logo are trademarks of the Great Circle Mapper.
All other trademarks mentioned herein belong to their respective owners.
Please see credits for attibutions and further copyright information.

  Follow gcmap on Facebook Follow gcmap on Twitter Follow gcmap on Google+ GCmap on LinkedIn

hCard Microformat

Geo Microformat